Starlink 31359

operational
NORAD ID: 58945 Int'l Des: 2024-027 Owner: SPXS Country: US Constellation: starlink
LEOCIRCULAR

Starlink 31359について

説明を読み込み中...

リアルタイム位置

3D地球を読み込み中...

次回通過

高度履歴

Altitude vs Time

uPlot chart will show altitude changes over time

軌道要素

1 58945U 24027Q 25260.84107493 .00000277 00000-0 21463-4 0 9993
2 58945 53.1608 354.0584 0001553 148.5924 211.5170 15.30210991 91415
Epoch: Sep 17, 2025 • Age: 20 hours

現在のステータス

高度 486.9 km
速度 7.62 km/s
衛星直下点 -37.00°S, 33.3°W
打ち上げ日 Feb 10, 2024
運用期間 1.6 years
タイプ internet

技術仕様

分類 Payload
質量 730.00 kg
乾燥質量 700.00 kg
総質量 730.00 kg
長さ 0.30 m
直径 4.10 m
スパン 29.00 m
形状 Box + pan
製造者 SPXS
バスタイプ Starlink V2M
フェーズステータス In Orbit
所有者/国 SPXS/US

大規模コンステレーション

Loading constellations...